EHI
0 3 7 5 1 0 3 10 16 18 13 5 1 0 0 0 0 0 0 0 0 0 0 0 0 0 0 0 0 0 0 0 0 0 0 0 0 0 0 0 0 0 0
0 3 7 7 4 3 5 9 13 14 9 3 0 0 0 0 0 0 0 0 0 0 0 0 0 0 0 0 0 0 0 0 0 0 0 0 0 0 0 0 0 0 0
0 1 4 7 11 12 11 10 11 9 5 1 0 0 0 0 0 0 0 0 0 0 0 0 0 0 0 0 0 0 0 0 0 0 0 0 0 0 0 0 0 0 0
0 0 2 10 20 25 24 22 19 14 6 2 0 0 0 0 0 0 0 0 0 0 0 0 0 0 0 0 0 0 0 0 0 0 0 0 0 0 0 0 0 0 0
0 0 4 16 28 34 36 37 34 25 12 4 1 0 0 0 0 0 0 0 0 0 0 0 0 0 0 0 0 0 0 0 0 0 0 0 0 0 0 0 0 0 0
1 1 8 23 35 38 40 45 45 33 18 7 1 0 0 0 0 0 0 0 0 0 0 0 0 0 0 0 0 0 0 0 0 0 0 0 0 0 0 0 0 0 0
6 4 12 31 42 42 41 45 47 38 23 10 3 0 0 0 0 0 0 0 0 0 0 0 0 0 0 0 0 0 0 0 0 0 0 0 0 0 0 0 0 0 0
14 13 20 35 46 46 43 42 44 40 28 15 5 1 0 0 0 0 0 0 0 0 0 0 0 0 0 0 0 0 0 0 0 0 0 0 0 0 0 0 0 0 1
15 20 25 33 44 49 48 45 44 42 34 21 8 2 0 0 0 0 0 0 0 0 0 0 0 0 0 0 0 0 0 0 0 0 0 0 0 0 0 0 0 1 3
8 14 20 26 35 45 51 52 53 52 44 30 16 7 2 0 0 0 0 0 0 0 0 0 0 0 0 0 0 0 0 0 0 0 0 0 0 0 0 0 0 1 3
2 4 8 14 24 37 49 57 62 62 56 43 27 14 6 2 0 0 0 0 0 0 0 0 0 0 0 0 0 0 0 0 0 0 0 0 0 0 0 0 0 1 3
0 0 1 5 14 28 42 52 57 60 56 46 33 21 11 4 1 1 0 0 0 0 0 0 0 0 0 0 0 0 0 0 0 0 0 0 0 0 0 0 0 1 2
0 0 0 1 5 15 25 33 39 43 41 35 28 21 13 6 3 2 1 0 0 0 0 0 0 0 0 0 0 0 0 0 0 0 0 0 0 0 0 0 0 0 1
0 0 0 0 1 4 9 13 18 22 23 21 18 15 14 12 7 5 3 2 1 1 1 1 1 2 2 1 0 0 0 0 0 0 0 0 0 0 0 0 0 0 0
4 3 2 2 3 4 4 4 5 7 10 11 8 7 12 16 13 7 4 3 3 3 3 4 3 3 3 2 1 0 0 0 0 0 0 0 0 0 0 0 0 0 0
17 13 7 5 6 7 5 2 0 1 3 4 3 2 6 12 12 6 2 1 3 5 8 9 7 3 2 2 1 0 0 0 0 0 0 0 0 0 0 0 0 0 0
37 28 16 12 11 8 5 3 2 2 3 4 4 2 2 6 7 5 2 3 6 10 12 13 10 6 3 2 2 1 1 2 1 0 0 0 0 0 0 0 0 0 0
49 40 29 24 17 8 5 5 5 7 8 9 9 6 4 5 7 8 9 10 14 18 18 15 16 15 11 8 8 6 5 5 3 1 1 1 0 0 0 0 0 0 0
44 39 33 29 19 8 4 4 4 7 10 11 10 7 5 4 7 11 14 15 19 23 23 20 23 27 23 18 15 11 10 11 8 4 1 0 0 0 0 0 0 1 1
29 28 25 20 13 7 3 2 1 3 5 6 5 3 2 2 3 7 10 12 16 20 23 23 26 30 31 26 16 9 10 13 12 6 2 1 0 0 0 0 0 0 0
16 15 13 10 6 4 2 1 0 0 1 1 1 0 0 1 1 1 3 5 9 13 17 20 26 31 32 26 14 6 6 8 9 6 3 1 0 0 0 0 0 0 0
6 5 5 5 3 2 1 0 0 0 0 0 0 0 0 0 0 0 0 1 3 6 9 13 23 30 29 22 14 6 2 3 3 2 1 1 0 0 0 0 0 0 0
1 1 2 2 2 1 1 1 1 1 0 0 0 0 0 0 0 0 0 0 0 2 3 7 14 22 24 21 16 8 3 1 1 0 0 0 0 0 0 0 0 0 0
1 1 1 1 1 0 2 4 3 2 1 0 0 0 0 0 0 0 0 0 0 0 1 3 7 15 21 23 21 13 6 2 1 0 0 0 0 0 0 0 0 0 0
1 1 1 0 0 0 2 3 3 2 1 0 0 0 0 0 0 0 0 0 0 0 0 1 4 9 17 22 22 17 9 4 2 0 0 0 0 0 0 0 0 0 0
0 1 1 1 0 0 1 1 1 1 0 0 0 0 0 0 0 0 0 0 0 0 0 1 2 5 11 16 19 17 11 5 2 0 0 0 0 0 0 0 0 0 0
Wind_Speed
6 8 18 18 17 16 15 14 15 15 16 16 15 15 14 13 12 11 10 10 9 8 8 8 8 8 8 8 8 9 10 10 10 10 11 12 11 11 10 10 10 9 12
11 11 18 18 18 17 16 15 15 15 15 14 14 14 13 12 12 11 10 9 9 8 8 7 7 7 7 7 7 8 8 8 8 8 9 9 10 9 10 10 10 7 11
12 11 15 17 18 17 16 15 15 15 14 14 13 13 12 12 11 10 9 9 8 8 7 7 7 7 6 6 7 7 7 7 7 7 7 4 5 7 9 9 10 10 11
12 9 11 17 17 17 16 16 16 15 15 14 13 12 11 11 10 10 9 8 7 7 7 7 7 7 6 6 6 6 7 7 7 7 3 2 3 5 7 9 10 10 11
10 9 12 19 18 17 17 16 16 15 15 14 12 11 10 10 9 9 8 7 7 7 7 7 7 7 7 6 6 6 6 6 6 6 4 3 3 5 7 9 10 10 10
10 8 11 19 18 17 17 16 15 15 14 13 12 11 10 9 9 8 8 7 7 7 7 7 7 7 7 7 7 7 7 7 6 3 3 4 4 6 9 10 11 11 11
10 8 9 18 17 17 16 16 15 14 13 12 11 10 9 9 8 8 8 8 8 8 8 8 8 8 8 8 8 8 8 9 6 4 4 5 6 9 11 13 13 13 13
10 8 8 17 17 16 15 15 14 13 12 11 11 10 9 9 9 9 9 9 9 10 10 10 10 10 10 9 9 9 9 9 7 6 6 6 8 10 12 14 16 16 15
8 7 6 8 12 15 15 14 13 13 12 11 10 10 9 9 9 9 10 10 11 11 11 11 12 12 11 10 11 11 11 11 8 5 6 5 9 12 12 13 16 17 17
6 6 6 6 6 6 8 13 13 13 12 11 11 11 10 10 10 11 10 10 12 12 13 13 13 13 12 11 12 12 12 11 8 8 6 7 12 13 14 14 15 17 18
8 6 5 5 5 5 5 9 11 12 12 11 10 12 10 5 5 6 9 11 13 14 14 14 14 14 13 12 13 13 12 6 8 7 6 10 13 14 15 15 15 16 18
11 10 8 7 6 5 6 5 4 4 5 6 4 5 4 4 4 7 8 14 15 15 16 16 15 14 11 6 9 12 6 8 8 7 8 14 15 16 16 16 16 16 18
9 10 10 9 7 7 4 3 2 2 3 4 5 6 4 4 4 5 4 7 8 11 8 9 9 7 7 6 6 7 8 8 7 7 9 15 15 17 17 17 17 17 18
7 9 8 8 8 8 5 3 3 3 3 4 5 5 5 4 5 5 5 5 5 5 6 7 6 8 8 9 9 10 10 8 7 7 8 16 16 17 18 17 16 17 17
7 8 7 7 8 7 6 4 3 4 4 4 4 5 6 6 6 6 6 5 6 6 7 7 7 8 8 8 8 10 11 11 10 9 7 15 17 16 18 18 17 16 16
8 8 6 7 7 6 5 4 3 3 4 4 5 7 7 7 7 6 7 7 7 7 7 6 7 7 7 7 8 9 10 9 9 9 9 11 16 16 17 18 18 17 17
7 7 7 7 6 6 6 6 5 4 5 5 6 7 8 9 9 8 7 8 8 7 8 7 8 7 7 7 9 9 8 8 9 10 10 9 9 13 16 17 18 18 18
6 6 7 7 7 8 7 6 5 5 6 6 5 6 8 9 10 8 8 8 8 7 7 7 7 7 7 7 7 7 7 7 10 11 10 9 8 9 11 15 16 17 18
7 7 7 7 7 8 7 5 5 4 5 4 4 4 6 7 8 7 7 7 7 6 6 8 7 6 7 8 8 7 7 7 9 10 10 11 10 10 9 10 14 16 18
7 7 7 6 6 5 4 2 2 3 3 3 3 4 5 4 5 5 5 7 6 6 6 7 8 7 7 7 8 8 7 8 8 9 11 10 10 11 11 10 9 10 16
5 5 6 6 5 3 2 1 1 2 2 2 3 4 4 5 5 5 5 5 5 5 7 7 7 8 8 5 5 6 6 8 10 9 9 9 11 12 11 10 8 8 7
6 6 6 5 4 3 2 2 1 1 2 2 3 4 5 5 6 5 5 5 5 5 7 7 7 6 5 5 5 4 4 4 7 9 8 9 11 9 10 11 9 9 8
6 7 5 5 4 3 2 1 1 1 2 2 3 3 4 6 7 6 6 6 6 6 6 7 7 9 7 6 7 6 5 6 3 3 6 7 7 6 7 7 8 9 9
7 4 3 4 3 3 3 2 2 1 2 3 3 4 6 6 6 7 7 7 7 6 7 8 8 8 9 7 6 8 7 5 4 3 3 4 6 6 7 6 7 7 7
4 3 3 4 3 3 3 4 3 3 3 3 3 5 5 5 6 6 7 7 7 7 8 9 9 9 8 8 7 6 8 7 8 6 5 3 3 4 5 5 5 5 4
2 3 4 5 4 4 4 4 4 4 3 3 4 4 4 4 5 6 7 7 8 7 9 9 9 10 9 10 8 7 6 5 6 7 8 5 4 3 3 2 2 2 1
Wind_Direction
166 164 162 160 155 149 143 139 134 131 131 132 133 134 135 136 137 137 136 132 129 125 122 119 118 119 119 117 116 115 119 123 126 128 129 130 130 128 126 126 126 128 129
154 161 164 163 158 153 150 146 142 139 137 137 138 139 139 139 139 140 140 139 137 134 130 128 127 128 128 127 125 125 127 130 134 137 137 135 137 139 138 137 137 139 137
148 159 164 164 160 157 155 152 149 146 145 145 144 144 144 145 146 146 148 148 148 145 141 140 139 138 138 138 138 139 141 143 147 152 143 127 141 152 159 153 152 149 145
150 156 161 166 164 162 162 159 156 155 154 154 153 152 151 151 152 155 156 159 161 161 159 159 159 157 156 156 156 156 157 159 165 165 146 167 180 166 171 167 166 163 158
151 156 168 168 169 169 168 166 164 163 162 162 162 162 162 163 166 168 170 174 178 181 182 183 182 179 179 181 182 182 183 184 188 178 174 197 224 203 185 180 180 179 174
156 158 173 171 173 174 173 172 170 169 169 170 170 172 176 180 184 187 190 195 199 203 206 208 208 204 201 202 204 206 209 212 212 206 206 215 220 226 213 201 195 194 190
159 161 177 174 178 178 178 177 176 175 176 178 180 184 189 195 202 207 211 214 218 221 224 226 227 226 224 223 224 225 227 231 222 218 229 235 234 234 231 222 211 205 202
160 160 175 180 182 184 184 184 183 182 183 186 190 195 202 209 217 223 226 229 232 234 236 237 238 239 240 240 241 241 241 243 244 230 232 238 243 243 241 235 221 212 209
153 158 174 181 185 189 190 191 191 190 191 195 200 206 213 221 228 234 238 241 243 245 246 248 248 249 249 248 250 251 252 251 250 241 243 240 245 250 252 248 229 216 214
154 166 175 178 181 184 192 198 198 199 201 204 210 216 223 230 236 241 244 247 252 254 254 255 257 258 257 256 255 257 259 261 258 252 248 248 250 253 256 256 242 223 217
175 183 181 181 181 178 185 203 203 206 209 212 218 225 228 230 238 249 253 252 255 258 260 261 261 262 262 261 260 260 262 253 258 259 256 256 256 256 257 256 252 235 222
188 192 193 194 188 181 198 203 203 206 207 209 205 221 225 220 228 242 248 255 258 260 262 263 261 262 262 255 259 262 255 253 256 260 260 261 261 260 259 257 252 244 230
190 193 198 200 197 196 204 200 204 209 211 214 214 214 220 229 237 245 244 255 258 261 261 261 260 251 243 239 242 243 246 251 254 257 260 262 261 261 261 258 252 248 239
185 197 195 198 203 207 206 209 211 218 224 229 229 224 221 233 240 243 244 244 243 247 248 248 249 247 244 242 241 243 245 245 248 250 255 260 260 260 262 262 259 254 247
192 196 191 194 205 208 209 218 222 228 235 241 244 234 228 235 242 242 244 242 242 241 243 247 250 252 250 249 247 245 244 244 244 245 253 258 260 259 262 264 264 261 256
195 193 186 194 199 200 210 217 235 238 238 241 242 240 231 234 240 241 246 245 242 239 240 241 247 251 251 248 251 249 247 246 244 243 246 255 258 259 261 265 266 264 259
188 182 184 193 188 196 210 220 229 235 237 242 245 243 238 235 240 240 242 243 241 236 235 237 241 242 245 242 244 246 246 246 243 244 246 248 254 256 256 258 261 261 259
166 172 184 196 188 199 207 216 226 233 238 243 245 248 246 243 241 240 242 245 243 237 235 235 234 237 240 240 240 241 240 238 244 244 245 245 246 252 253 251 252 254 255
155 159 168 181 187 200 206 213 224 234 240 245 248 250 254 254 251 243 246 251 249 244 241 242 235 226 236 239 240 240 237 241 244 247 245 244 243 244 246 248 247 249 253
154 158 166 177 189 188 189 205 234 255 257 257 259 265 271 270 271 263 257 259 257 253 248 241 241 232 232 235 245 247 237 235 235 239 243 245 245 247 247 248 246 248 249
158 165 173 180 189 166 147 170 215 257 274 287 291 297 304 299 293 282 275 272 264 256 255 250 246 243 241 231 238 254 250 240 238 237 238 242 246 247 247 247 247 246 248
184 189 190 191 185 177 159 159 183 236 275 282 301 311 308 309 305 302 288 282 274 267 264 257 248 246 242 211 213 231 258 258 236 234 232 235 242 244 248 248 246 242 244
209 205 197 190 183 172 150 107 58 14 339 323 316 310 310 312 307 300 294 288 282 272 268 262 250 245 246 228 211 210 216 233 250 245 233 234 237 236 240 243 246 246 244
223 212 197 183 169 159 149 152 169 220 265 266 284 290 301 302 305 305 303 298 290 280 272 268 260 248 243 241 223 218 222 208 217 256 246 235 234 234 237 241 246 248 246
224 201 190 175 174 173 168 172 184 215 236 271 286 292 298 301 302 306 306 302 296 288 279 272 266 254 244 241 230 217 225 228 225 232 252 243 233 236 238 244 251 252 249
235 196 184 183 192 188 183 188 198 218 244 279 294 301 305 304 300 303 307 301 295 289 284 277 269 259 249 243 237 224 214 213 212 219 232 236 236 237 237 251 252 251 255